Location: Montr�al
(45.5000°N, 73.5830°W)
Time: 10:29:58
(UTC-04:00)

Cosmos 1151 Rocket - Visible Passes

Search period start: 29 June 2016 00:00
Search period end: 09 July 2016 00:00
Orbit: 592 x 617 km, 82.5° (Epoch: 29 June)

Date Brightness Start Highest point End Pass type
(mag) Time Alt. Az. Time Alt. Az. Time Alt. Az.
29 Jun 3.7 21:30:29 10° NNW 21:34:43 57° W 21:38:58 10° S visible
30 Jun 4.6 21:43:34 10° NNW 21:47:30 34° W 21:51:25 10° SSW visible
01 Jul 5.4 21:56:53 10° NW 22:00:11 22° W 22:03:29 10° SW visible
02 Jul 5.8 22:10:41 10° NW 22:12:49 14° W 22:14:58 10° WSW visible
06 Jul 5.7 21:23:47 10° NW 21:26:54 19° W 21:30:00 10° SW visible
07 Jul 6.1 21:37:50 10° WNW 21:39:31 12° W 21:41:12 10° WSW visible
